Location: L�gaud
(45.7115°N, 1.7775°E)
Time: 13:48:01
(UTC+00:00)

Gbstr 26 Del rocket - Pass Details

Date: 03 March 2021
Orbit: 492 x 1264 km, 51.8° (Epoch: 15 April)

Event Time Altitude Azimuth Distance (km) Brightness Sun altitude
Rises 18:06:13 0° 263° (W) 2,703 9.3 -4.9°
Reaches altitude 10° 18:08:20 10° 269° (W) 1,880 7.5 -5.3°
Maximum altitude 18:12:29 50° 345° (NNW) 823 3.8 -6.0°
Drops below altitude 10° 18:17:31 10° 62° (ENE) 2,283 5.4 -6.9°
Enters shadow 18:18:33 - 64° (ENE) 2,674 5.7 -7.1°
